Home   Weather   Fredrikstad   Past weeks
Flag for Norway

Past Weather in Fredrikstad, Norway — Yesterday and Last 2 Weeks

Now
41 °F

Partly sunny.


Feels Like: 39 °F
Forecast: 51 / 46 °F
Wind: 3 mph from South

Location: Rygge

Current Time: Oct 21, 2019 at 6:21:19 pm

Latest Report: Oct 21, 2019 at 5:20 pm


Visibility: N/A

Pressure: 30.12 "Hg

Humidity: 87%

Dew Point: 37 °F

Location of FredrikstadLocation

Past Weather in Fredrikstad — Graph

°F

Fredrikstad Temperature Yesterday

Maximum temperature yesterday: 45 °F (at 11:20 am)
Minimum temperature yesterday: 39 °F (at 12:20 am)
Average temperature yesterday: 42 °F

High & Low Weather Summary for the Past Weeks

 TemperatureHumidityPressure
High55 °F (Oct 12, 2:20 pm)100% (Oct 7, 2:50 am)30.27 "Hg (Oct 7, 2:50 am)
Low25 °F (Oct 7, 4:50 am)49% (Oct 6, 5:20 pm)29.24 "Hg (Oct 11, 10:50 pm)
Average44 °F90%29.70 "Hg
* Reported Oct 6 5:20 pm — Oct 21 5:20 pm, Fredrikstad. Weather by CustomWeather, © 2019

Note: Actual official high and low records may vary slightly from our data, if they occured in-between our weather recording intervals... More about our weather records

Advertising

Fredrikstad Weather History for the Previous 24 Hours

Scroll right to see more
 ConditionsComfort  
Time TempWeatherWind HumidityBarometerVisibility
5:20 pm
Mon, Oct 21
41 °FPartly sunny.3 mph87%30.12 "HgN/A
4:50 pm41 °FPartly sunny.3 mph81%30.12 "HgN/A
4:20 pm41 °FPartly sunny.5 mph81%30.12 "HgN/A
3:50 pm41 °FPartly sunny.3 mph81%30.15 "HgN/A
3:20 pm39 °FPartly sunny.5 mph87%30.15 "HgN/A
2:50 pm39 °FPartly sunny.2 mph87%30.15 "HgN/A
2:20 pm39 °FPartly sunny.3 mph87%30.15 "HgN/A
1:50 pm39 °FPartly sunny.2 mph87%30.15 "HgN/A
1:20 pm39 °FPartly sunny.3 mph87%30.15 "HgN/A
12:50 pm39 °FPartly sunny.6 mph81%30.18 "HgN/A
12:20 pm39 °FPartly sunny.6 mph87%30.15 "HgN/A
11:50 am39 °FPartly sunny.5 mph87%30.15 "HgN/A
11:20 am39 °FPartly sunny.3 mph87%30.15 "HgN/A
10:50 am39 °FPartly sunny.2 mph81%30.15 "HgN/A
10:20 am39 °FOvercast.5 mph81%30.15 "HgN/A
9:50 am39 °FOvercast.5 mph81%30.15 "HgN/A
9:20 am39 °FOvercast.7 mph81%30.15 "HgN/A
8:50 am39 °FPartly sunny.3 mph81%30.15 "HgN/A
8:20 am39 °FPartly sunny.3 mph81%30.15 "HgN/A
7:50 am39 °FOvercast.7 mph81%30.12 "HgN/A
7:20 am39 °FOvercast.5 mph81%30.12 "HgN/A
6:50 am37 °FOvercast.5 mph87%30.12 "HgN/A
6:20 am37 °FOvercast.9 mph87%30.12 "HgN/A
5:50 am37 °FOvercast.6 mph87%30.09 "HgN/A
5:20 am37 °FOvercast.5 mph87%30.09 "HgN/A
4:50 am37 °FPassing clouds.6 mph93%30.09 "HgN/A
4:20 am39 °FOvercast.8 mph81%30.09 "HgN/A
3:50 am39 °FLow clouds.9 mph81%30.07 "HgN/A
3:20 am39 °FMostly cloudy.9 mph87%30.07 "HgN/A
2:50 am39 °FLow clouds.10 mph87%30.07 "HgN/A
1:50 am39 °FLow clouds.9 mph87%30.04 "HgN/A
1:20 am39 °FOvercast.7 mph87%30.04 "HgN/A
12:50 am39 °FOvercast.8 mph87%30.04 "HgN/A
12:20 am39 °FMostly cloudy.10 mph87%30.04 "HgN/A
11:50 pm
Sun, Oct 20
39 °FOvercast.5 mph93%30.01 "HgN/A
11:20 pm41 °FOvercast.6 mph87%30.01 "HgN/A
10:50 pm41 °FOvercast.10 mph87%30.01 "HgN/A
10:20 pm41 °FOvercast.9 mph87%29.98 "HgN/A
9:50 pm41 °FOvercast.6 mph87%29.98 "HgN/A
9:20 pm41 °FOvercast.6 mph93%29.98 "HgN/A
8:50 pm41 °FMostly cloudy.5 mph87%29.95 "HgN/A
8:20 pm41 °FPassing clouds.8 mph87%29.95 "HgN/A
7:50 pm41 °FPassing clouds.7 mph87%29.95 "HgN/A
7:20 pm41 °FPassing clouds.7 mph93%29.92 "HgN/A
6:50 pm41 °FPassing clouds.8 mph93%29.92 "HgN/A
6:20 pm41 °FPartly cloudy.6 mph93%29.92 "HgN/A
Weather by CustomWeather, © 2019

See weather overview